Location: Erlenbrunn
(49.1717°N, 7.6142°E)
Time: 18:33:01
(UTC+00:00)

Nadezhda 3 Rocket - Visible Passes

Search period start: 16 April 2021 00:00
Search period end: 26 April 2021 00:00
Orbit: 957 x 999 km, 82.9° (Epoch: 15 April)

Date Brightness Start Highest point End Pass type
(mag) Time Alt. Az. Time Alt. Az. Time Alt. Az.
16 Apr 5.6 01:15:39 14° SE 01:19:57 29° E 01:25:17 10° NNE visible
16 Apr 4.2 03:00:24 18° SSW 03:05:03 55° WNW 03:11:17 10° N visible
17 Apr 4.7 01:41:55 22° SSE 01:45:50 49° E 01:51:55 10° NNE visible
17 Apr 4.8 03:26:39 14° SW 03:31:30 33° WNW 03:37:12 10° N visible
18 Apr 6.3 00:23:57 10° ESE 00:27:28 16° ENE 00:30:58 10° NE visible
18 Apr 4.0 02:08:09 27° S 02:11:54 83° E 02:18:17 10° N visible
18 Apr 5.4 03:53:32 10° WSW 03:58:10 21° WNW 04:02:49 10° NNW visible
19 Apr 5.7 00:49:38 17° SE 00:53:09 27° E 00:58:16 10° NNE visible
19 Apr 4.1 02:34:22 25° SSW 02:38:08 61° WNW 02:44:26 10° N visible
20 Apr 4.9 01:15:50 26° SE 01:19:00 45° E 01:24:58 10° NNE visible
20 Apr 4.7 03:00:33 19° SW 03:04:34 37° WNW 03:10:23 10° N visible
20 Apr 6.3 23:57:42 10° ESE 00:00:42 14° ENE 00:03:42 10° NE visible
21 Apr 4.1 01:41:59 33° S 01:45:02 75° E 01:51:22 10° NNE visible
21 Apr 5.4 03:26:43 11° WSW 03:31:11 23° WNW 03:36:04 10° NNW visible
22 Apr 5.7 00:23:25 17° ESE 00:26:21 24° E 00:31:14 10° NNE visible
22 Apr 4.1 02:08:08 31° SSW 02:11:14 67° WNW 02:17:33 10° N visible
23 Apr 5.0 00:49:33 28° SE 00:52:11 40° E 00:58:00 10° NNE visible
23 Apr 4.6 02:34:16 23° SW 02:37:38 40° WNW 02:43:33 10° N visible
23 Apr 6.3 23:31:35 10° E 23:33:56 12° ENE 23:36:18 10° NE visible
24 Apr 4.2 01:15:40 38° SSE 01:18:10 68° E 01:24:27 10° NNE visible
24 Apr 5.3 03:00:22 15° WSW 03:04:12 25° WNW 03:09:17 10° N visible
24 Apr 5.8 23:57:02 17° ESE 23:59:33 22° E 00:04:10 10° NNE visible
25 Apr 4.0 01:41:46 38° SSW 01:44:21 73° WNW 01:50:41 10° N visible
25 Apr 5.8 03:27:27 10° W 03:31:00 15° WNW 03:34:32 10° NNW visible
